| time (UTC) | temp F | wind direction | speed MPH | gust MPH | rain 1hr in | rain 24hr in | rain mn in | humidity % | barometer mb |
| 20260507020035 | 57 | 285 | 1.0 | 4.0 | 0.00 | 0.40 | 0.40 | 94 | 1009.1 |
| 20260507014544 | 57 | 282 | 1.0 | 4.0 | 0.00 | 0.40 | 0.40 | 94 | 1008.8 |
| 20260507013042 | 57 | 282 | 1.0 | 5.0 | 0.00 | 0.40 | 0.40 | 94 | 1009.0 |
| 20260507011545 | 57 | 282 | 2.0 | 8.0 | 0.00 | 0.40 | 0.40 | 94 | 1008.8 |
| 20260507010050 | 57 | 282 | 1.0 | 5.0 | 0.00 | 0.40 | 0.40 | 94 | 1008.8 |
| 20260507004545 | 57 | 282 | 1.0 | 7.0 | 0.00 | 0.40 | 0.40 | 94 | 1008.6 |
| 20260507003043 | 57 | 290 | 2.0 | 7.0 | 0.00 | 0.40 | 0.40 | 94 | 1008.9 |
| 20260507001549 | 57 | 287 | 1.0 | 6.0 | 0.01 | 0.40 | 0.40 | 94 | 1008.9 |
| 20260507000042 | 57 | 283 | 0.0 | 4.0 | 0.01 | 0.40 | 0.40 | 94 | 1008.9 |
| 20260506234542 | 57 | 283 | 2.0 | 5.0 | 0.01 | 0.40 | 0.40 | 94 | 1008.8 |
| 20260506233045 | 56 | 283 | 1.0 | 8.0 | 0.02 | 0.40 | 0.40 | 93 | 1008.6 |
| 20260506231538 | 56 | 274 | 2.0 | 7.0 | 0.04 | 0.39 | 0.39 | 93 | 1008.3 |
| 20260506230042 | 56 | 269 | 1.0 | 6.0 | 0.06 | 0.39 | 0.39 | 93 | 1008.3 |
| 20260506224544 | 56 | 269 | 1.0 | 5.0 | 0.07 | 0.39 | 0.39 | 93 | 1008.3 |
| 20260506223045 | 56 | 269 | 1.0 | 7.0 | 0.06 | 0.38 | 0.38 | 93 | 1008.2 |
| 20260506221547 | 56 | 0 | 0.0 | 3.0 | 0.03 | 0.35 | 0.35 | 93 | 1008.2 |
| 20260506220048 | 56 | 267 | 2.0 | 6.0 | 0.02 | 0.32 | 0.32 | 93 | 1008.3 |
| 20260506214540 | 56 | 264 | 1.0 | 5.0 | 0.05 | 0.32 | 0.32 | 93 | 1008.2 |
| 20260506213036 | 56 | 264 | 2.0 | 6.0 | 0.07 | 0.32 | 0.32 | 93 | 1008.4 |
| 20260506211540 | 56 | 265 | 2.0 | 5.0 | 0.07 | 0.31 | 0.31 | 93 | 1008.5 |
| 20260506210042 | 56 | 265 | 1.0 | 6.0 | 0.07 | 0.30 | 0.30 | 93 | 1008.7 |
| 20260506204541 | 56 | 265 | 1.0 | 8.0 | 0.05 | 0.27 | 0.27 | 92 | 1008.8 |
| 20260506203041 | 56 | 263 | 1.0 | 4.0 | 0.04 | 0.25 | 0.25 | 92 | 1008.9 |
| 20260506201539 | 56 | 263 | 2.0 | 5.0 | 0.03 | 0.24 | 0.24 | 92 | 1008.9 |
| 20260506200040 | 56 | 263 | 1.0 | 7.0 | 0.03 | 0.23 | 0.23 | 92 | 1008.9 |
| 20260506194538 | 56 | 259 | 2.0 | 9.0 | 0.05 | 0.22 | 0.22 | 92 | 1009.1 |
| 20260506193036 | 56 | 253 | 1.0 | 11.0 | 0.05 | 0.21 | 0.21 | 92 | 1009.2 |
| 20260506191542 | 56 | 0 | 1.0 | 8.0 | 0.07 | 0.21 | 0.21 | 92 | 1009.5 |
| 20260506190041 | 56 | 254 | 2.0 | 9.0 | 0.07 | 0.20 | 0.20 | 91 | 1009.4 |
| 20260506184538 | 56 | 251 | 2.0 | 5.0 | 0.08 | 0.17 | 0.17 | 91 | 1009.6 |
| 20260506183034 | 56 | 251 | 2.0 | 7.0 | 0.12 | 0.16 | 0.16 | 90 | 1009.4 |
| 20260506181543 | 57 | 250 | 1.0 | 7.0 | 0.13 | 0.14 | 0.14 | 90 | 1009.5 |
| 20260506180041 | 58 | 250 | 1.0 | 5.0 | 0.12 | 0.12 | 0.12 | 89 | 1009.9 |
| 20260506174546 | 58 | 250 | 1.0 | 6.0 | 0.09 | 0.09 | 0.09 | 88 | 1010.2 |
| 20260506173041 | 59 | 249 | 1.0 | 4.0 | 0.04 | 0.04 | 0.04 | 86 | 1010.6 |
| 20260506171537 | 61 | 0 | 1.0 | 6.0 | 0.01 | 0.01 | 0.01 | 83 | 1010.9 |
| 20260506170036 | 63 | 247 | 4.0 | 10.0 | 0.00 | 0.00 | 0.00 | 78 | 1011.0 |
| 20260506164541 | 65 | 212 | 2.0 | 10.0 | 0.00 | 0.00 | 0.00 | 73 | 1010.7 |
| 20260506163048 | 65 | 210 | 2.0 | 9.0 | 0.00 | 0.00 | 0.00 | 72 | 1010.5 |
| 20260506161541 | 65 | 214 | 3.0 | 14.0 | 0.00 | 0.00 | 0.00 | 71 | 1010.7 |
| 20260506160042 | 66 | 169 | 2.0 | 8.0 | 0.00 | 0.00 | 0.00 | 70 | 1011.0 |
| 20260506154540 | 66 | 205 | 3.0 | 10.0 | 0.00 | 0.00 | 0.00 | 69 | 1010.9 |
| 20260506153041 | 66 | 202 | 3.0 | 11.0 | 0.00 | 0.00 | 0.00 | 68 | 1011.0 |
| 20260506151542 | 67 | 214 | 1.0 | 5.0 | 0.00 | 0.00 | 0.00 | 68 | 1011.1 |
| 20260506150050 | 66 | 197 | 4.0 | 13.0 | 0.00 | 0.00 | 0.00 | 69 | 1011.2 |
| 20260506144558 | 66 | 256 | 2.0 | 9.0 | 0.00 | 0.00 | 0.00 | 71 | 1011.5 |
| 20260506143050 | 65 | 246 | 4.0 | 12.0 | 0.00 | 0.00 | 0.00 | 72 | 1011.4 |
| 20260506141536 | 64 | 283 | 2.0 | 8.0 | 0.00 | 0.00 | 0.00 | 74 | 1011.4 |
| 20260506140053 | 63 | 267 | 2.0 | 7.0 | 0.00 | 0.00 | 0.00 | 76 | 1011.4 |
| 20260506134541 | 63 | 266 | 2.0 | 7.0 | 0.00 | 0.00 | 0.00 | 77 | 1011.3 |
| 20260506133047 | 62 | 271 | 2.0 | 6.0 | 0.00 | 0.00 | 0.00 | 79 | 1011.3 |
| 20260506131545 | 61 | 271 | 2.0 | 6.0 | 0.00 | 0.00 | 0.00 | 81 | 1011.4 |
| 20260506130105 | 60 | 268 | 2.0 | 6.0 | 0.00 | 0.00 | 0.00 | 82 | 1011.7 |
| 20260506124537 | 60 | 268 | 1.0 | 8.0 | 0.00 | 0.00 | 0.00 | 83 | 1011.9 |
| 20260506123040 | 60 | 262 | 3.0 | 9.0 | 0.00 | 0.00 | 0.00 | 83 | 1011.8 |
| 20260506121551 | 59 | 207 | 3.0 | 7.0 | 0.00 | 0.00 | 0.00 | 84 | 1011.6 |
| 20260506120041 | 59 | 218 | 2.0 | 9.0 | 0.00 | 0.00 | 0.00 | 84 | 1011.7 |
| 20260506114537 | 58 | 229 | 1.0 | 8.0 | 0.00 | 0.00 | 0.00 | 85 | 1011.8 |
| 20260506113038 | 58 | 226 | 3.0 | 10.0 | 0.00 | 0.00 | 0.00 | 85 | 1011.5 |
| 20260506111542 | 57 | 222 | 3.0 | 7.0 | 0.00 | 0.00 | 0.00 | 86 | 1012.2 |
| 20260506110044 | 56 | 219 | 1.0 | 7.0 | 0.00 | 0.00 | 0.00 | 86 | 1012.0 |
| 20260506104548 | 56 | 219 | 3.0 | 5.0 | 0.00 | 0.00 | 0.00 | 87 | 1012.1 |
| 20260506103040 | 56 | 219 | 1.0 | 3.0 | 0.00 | 0.00 | 0.00 | 87 | 1012.0 |
| 20260506101537 | 55 | 219 | 2.0 | 5.0 | 0.00 | 0.00 | 0.00 | 88 | 1011.8 |
| 20260506100037 | 55 | 219 | 1.0 | 4.0 | 0.00 | 0.00 | 0.00 | 87 | 1011.8 |
| 20260506094544 | 55 | 219 | 1.0 | 4.0 | 0.00 | 0.00 | 0.00 | 87 | 1011.7 |
| 20260506093044 | 55 | 219 | 3.0 | 7.0 | 0.00 | 0.00 | 0.00 | 87 | 1011.9 |
| 20260506091541 | 56 | 218 | 2.0 | 10.0 | 0.00 | 0.00 | 0.00 | 86 | 1011.7 |
| 20260506090042 | 56 | 219 | 1.0 | 8.0 | 0.00 | 0.00 | 0.00 | 86 | 1011.7 |
| 20260506084540 | 56 | 219 | 2.0 | 4.0 | 0.00 | 0.00 | 0.00 | 86 | 1012.1 |
| 20260506083053 | 56 | 219 | 2.0 | 8.0 | 0.00 | 0.00 | 0.00 | 86 | 1011.9 |
| 20260506081557 | 56 | 221 | 1.0 | 5.0 | 0.00 | 0.00 | 0.00 | 85 | 1011.9 |
| 20260506073041 | 57 | 224 | 1.0 | 6.0 | 0.00 | 0.00 | 0.00 | 84 | 1012.0 |
| 20260506071539 | 57 | 224 | 2.0 | 5.0 | 0.00 | 0.00 | 0.00 | 83 | 1012.2 |
| 20260506061546 | 58 | 240 | 2.0 | 7.0 | 0.00 | 0.00 | 0.00 | 81 | 1011.9 |
| 20260506044548 | 61 | 240 | 2.0 | 10.0 | 0.00 | 0.00 | 0.00 | 74 | 1012.5 |
| 20260506043041 | 62 | 224 | 3.0 | 13.0 | 0.00 | 0.00 | 0.00 | 74 | 1012.4 |
| 20260506041537 | 62 | 262 | 2.0 | 9.0 | 0.00 | 0.00 | 0.00 | 72 | 1012.4 |
| 20260506040043 | 62 | 271 | 3.0 | 13.0 | 0.00 | 0.00 | 0.00 | 71 | 1012.5 |
| 20260506034559 | 61 | 257 | 3.0 | 10.0 | 0.00 | 0.00 | 0.00 | 71 | 1012.5 |
| 20260506033042 | 61 | 247 | 3.0 | 9.0 | 0.00 | 0.00 | 0.00 | 71 | 1012.6 |
| 20260506031549 | 61 | 219 | 2.0 | 7.0 | 0.00 | 0.00 | 0.00 | 71 | 1012.4 |
| 20260506030037 | 61 | 229 | 1.0 | 11.0 | 0.00 | 0.00 | 0.00 | 71 | 1012.5 |
| 20260506024536 | 60 | 236 | 1.0 | 5.0 | 0.00 | 0.00 | 0.00 | 72 | 1012.4 |
| 20260506023035 | 61 | 236 | 2.0 | 6.0 | 0.00 | 0.00 | 0.00 | 71 | 1012.4 |
| 20260506021541 | 60 | 236 | 1.0 | 6.0 | 0.00 | 0.00 | 0.00 | 71 | 1012.4 |